CAPE
408 826 1097 1411 1615 1580 1331 1038 976 1370 1397 1393 1323 1256 1212 998 718 762 635 853 951 1128 968 476 135 39 58 235 360 532 996 1146 1179 1032 627 427 296 353 267 374 154 20 137
353 621 1022 1419 1449 1373 1165 1025 1122 1174 1361 1389 1294 1310 1335 1168 1003 844 931 1005 1001 961 692 332 226 38 0 0 0 85 262 552 863 886 801 235 254 397 213 630 262 197 108
272 520 1002 1212 1276 1368 1331 1203 1327 1242 1213 1106 1222 1247 1201 978 1048 1066 931 925 883 638 345 325 357 485 548 460 448 479 250 18 107 706 553 0 0 76 466 335 458 164 105
140 448 944 1077 1062 1194 1404 1461 1357 1344 1129 1231 1214 1185 1022 715 562 690 623 686 890 500 104 126 196 281 123 10 0 0 0 0 0 49 49 7 0 3 73 347 457 362 334
153 567 958 917 946 1140 1178 1216 1220 1250 1185 1182 1084 1001 974 521 143 368 377 539 717 304 75 91 51 0 0 0 0 0 0 0 0 0 0 0 0 0 0 92 547 311 284
263 485 666 764 863 987 1003 973 964 957 897 897 932 883 781 610 236 292 214 449 645 137 77 45 0 0 0 0 0 0 0 0 0 0 0 0 0 51 7 120 214 308 178
207 397 516 574 683 825 874 809 742 753 772 827 826 758 771 782 481 421 213 190 433 349 133 54 0 0 0 0 0 0 0 0 0 0 0 23 34 466 48 37 50 12 17
127 266 448 723 648 645 665 619 550 552 606 654 659 655 642 653 626 481 226 135 127 145 116 48 0 0 0 0 0 0 0 0 0 0 1 6 181 600 160 492 316 218 165
48 153 397 454 414 251 274 314 347 374 385 371 395 435 411 319 395 453 210 35 1 0 0 0 0 0 0 0 0 0 0 0 0 0 0 28 427 805 555 840 630 569 554
26 116 141 149 94 97 99 119 128 127 110 105 114 139 204 254 275 249 162 98 7 0 0 0 0 0 0 0 0 0 0 0 0 0 0 51 495 989 761 642 410 385 478
219 140 79 127 102 32 25 112 95 121 66 25 32 29 123 47 137 161 0 0 0 0 0 0 0 0 0 0 0 0 0 0 0 0 0 11 519 993 1043 680 481 488 596
552 395 210 221 157 76 61 11 0 0 8 46 17 27 49 158 89 173 46 0 0 0 0 0 0 0 0 0 0 0 0 0 0 0 0 13 394 1172 1092 561 324 290 371
653 630 668 517 380 312 48 5 18 31 114 109 227 79 99 25 18 108 1 2 5 4 0 0 0 0 0 0 0 0 0 0 0 0 0 0 254 1006 1162 662 348 288 252
807 721 778 734 569 710 487 224 385 375 356 154 46 65 171 269 221 36 29 10 29 73 18 35 52 126 103 86 32 176 116 100 99 35 100 95 155 531 931 924 960 1043 870
624 698 628 459 701 658 651 450 389 291 170 94 19 0 187 160 154 99 144 90 72 71 166 93 145 134 273 171 187 188 255 263 299 294 234 184 197 125 247 369 265 119 117
694 824 579 469 546 510 658 267 299 236 113 55 16 0 25 95 42 20 16 24 36 1 0 4 15 31 21 19 29 48 86 164 102 65 136 53 41 63 115 127 35 43 62
491 745 705 430 458 633 559 326 205 107 60 11 0 0 0 0 0 0 0 11 0 0 0 0 0 0 0 0 0 8 50 61 70 34 28 19 32 83 12 2 1 0 3
525 608 561 485 512 471 491 385 261 106 47 1 0 0 0 1 0 0 0 0 0 0 0 0 0 0 0 0 0 0 0 0 0 0 8 21 15 7 0 0 0 0 0
492 406 396 319 203 346 298 361 235 57 8 23 29 9 5 15 14 9 1 0 0 0 0 0 0 0 0 0 0 0 0 0 0 0 0 0 0 0 0 0 0 0 0
443 400 359 331 330 282 226 189 165 106 19 22 58 21 6 42 50 1 0 0 0 0 0 0 0 0 0 0 0 0 0 0 0 0 0 0 0 3 0 0 0 0 0
539 384 362 376 433 434 366 264 217 89 11 68 123 98 21 24 27 0 0 0 0 0 0 0 0 0 0 0 0 0 0 0 0 0 0 0 0 0 0 0 0 0 0
385 356 325 263 432 542 453 97 92 50 52 79 37 38 11 0 0 0 0 0 0 0 0 0 0 0 0 0 0 0 0 0 0 0 0 0 0 0 0 0 0 0 0
402 336 183 346 427 430 220 149 68 52 21 43 12 0 14 4 0 0 0 0 0 0 0 0 0 0 0 0 0 0 0 0 0 0 0 0 0 0 0 0 0 0 0
419 318 339 269 183 43 90 41 32 8 1 1 0 0 1 0 0 0 0 0 0 0 0 0 0 0 0 0 0 0 0 0 0 0 0 0 0 0 0 0 0 0 0
428 271 155 108 73 37 0 3 16 0 0 0 0 0 0 0 0 0 0 0 0 0 0 0 0 0 0 0 0 0 0 0 0 0 0 0 0 0 0 0 0 0 0
453 229 51 7 0 1 1 0 0 0 0 0 0 0 0 0 0 0 0 0 0 0 0 0 0 0 0 0 0 0 0 0 0 0 0 0 0 0 0 0 0 0 0
CIN
-112 -75 -65 -27 -4 -0 -3 -6 -7 -0 -0 -0 -0 -0 -0 -1 -6 -7 -5 -3 -2 -0 -0 -5 -28 -48 -28 -17 -16 -21 -12 -5 -5 -23 -40 -38 -50 -30 -37 -22 -68 -187 -79
-153 -106 -71 -17 -1 -0 -4 -5 -2 -1 -0 -0 -0 -0 -0 -0 -0 -3 -3 -2 -1 -0 -0 -0 -8 -36 -0 -0 -0 -80 -60 -31 -11 -6 -12 -52 -59 -33 -50 -9 -44 -70 -105
-173 -128 -56 -34 -0 -0 -0 -1 -0 -0 -0 -2 -0 -0 -0 -0 -0 -0 -1 -1 -0 -0 -0 -1 -0 -0 -3 -7 -19 -15 -45 -10 -49 -4 -15 -0 -0 -92 -17 -26 -12 -74 -105
-193 -120 -50 -32 -9 -0 -0 -0 -0 -0 -0 -0 -0 -0 -0 -0 -2 -7 -5 -3 -0 -0 -11 -3 -2 -3 -41 -10 -0 -0 -0 -0 -0 -53 -121 -8 -0 -61 -104 -25 -8 -21 -29
-172 -70 -32 -25 -10 -0 -0 -0 -0 -0 -0 -0 -0 -0 -0 -3 -57 -6 -10 -1 -5 -4 -25 -16 -36 -0 -0 -0 -0 -0 -0 -0 -0 -0 -0 -0 -0 -0 -0 -112 -11 -43 -45
-132 -69 -35 -26 -0 -0 -0 -0 -0 -0 -1 -1 -0 -0 -0 -0 -33 -24 -36 -8 -2 -57 -46 -68 -0 -0 -0 -0 -0 -0 -0 -0 -0 -0 -0 -0 -0 -167 -247 -141 -113 -83 -121
-144 -65 -41 -33 -3 -0 -0 -3 -4 -1 -1 -0 -0 -0 -0 -0 -5 -13 -50 -46 -14 -30 -86 -116 -0 -0 -0 -0 -0 -0 -0 -0 -0 -0 -0 -103 -77 -122 -211 -235 -243 -279 -262
-223 -96 -40 -5 -9 -2 -1 -6 -19 -16 -4 -1 -1 -1 -1 -0 -0 -8 -46 -57 -75 -86 -86 -86 -0 -0 -0 -0 -0 -0 -0 -0 -0 -1 -30 -77 -214 -128 -150 -117 -135 -146 -157
-335 -188 -44 -30 -22 -46 -37 -38 -27 -25 -35 -40 -30 -23 -30 -44 -34 -26 -58 -98 -5 -0 -0 -0 -0 -0 -0 -0 -0 -0 -0 -0 -0 -0 -0 -67 -147 -112 -116 -107 -109 -102 -94
-394 -258 -182 -145 -165 -130 -101 -71 -68 -70 -71 -75 -76 -78 -64 -50 -53 -71 -92 -108 -33 -0 -0 -0 -0 -0 -0 -0 -0 -0 -0 -0 -0 -0 -0 -26 -168 -108 -115 -131 -139 -135 -112
-284 -291 -282 -199 -172 -231 -224 -112 -92 -76 -99 -126 -121 -116 -6 -82 -79 -88 -0 -0 -0 -0 -0 -0 -0 -0 -0 -0 -0 -0 -0 -0 -0 -0 -0 -69 -165 -101 -97 -126 -142 -130 -105
-157 -200 -228 -162 -184 -200 -188 -96 -0 -0 -122 -39 -26 -58 -22 -24 -33 -34 -105 -0 -0 -0 -0 -0 -0 -0 -0 -0 -0 -0 -0 -0 -0 -0 -1 -230 -146 -92 -93 -141 -150 -145 -132
-139 -109 -84 -90 -106 -75 -188 -117 -166 -109 -35 -44 -19 -30 -28 -43 -8 -44 -70 -83 -175 -156 -0 -0 -0 -0 -0 -0 -0 -0 -0 -0 -0 -0 -0 -31 -181 -99 -91 -127 -142 -126 -107
-101 -86 -41 -43 -48 -21 -22 -67 -78 -36 -39 -49 -90 -77 -13 -30 -21 -73 -64 -2 -1 -31 -9 -16 -36 -25 -28 -19 -17 -1 -6 -1 -0 -1 -2 -1 -23 -54 -19 -28 -37 -21 -15
-166 -113 -74 -64 -34 -14 -23 -46 -51 -93 -71 -73 -161 -0 -25 -47 -54 -59 -68 -29 -48 -39 -7 -21 -11 -15 -1 -5 -46 -6 -22 -8 -4 -23 -13 -19 -3 -74 -34 -30 -20 -7 -15
-179 -126 -92 -97 -54 -74 -17 -60 -69 -60 -86 -121 -161 -0 -166 -90 -159 -138 -29 -87 -118 -6 -2 -2 -5 -31 -12 -27 -30 -25 -20 -11 -22 -12 -51 -5 -26 -13 -6 -3 -10 -31 -21
-244 -163 -118 -147 -100 -32 -22 -41 -89 -126 -130 -199 -0 -0 -0 -0 -0 -0 -10 -33 -0 -0 -0 -0 -0 -0 -0 -2 -0 -5 -20 -6 -0 -1 -28 -3 -36 -2 -1 -1 -0 -0 -1
-292 -186 -175 -159 -108 -93 -51 -50 -84 -132 -126 -129 -0 -0 -0 -30 -0 -0 -0 -0 -0 -0 -0 -0 -0 -0 -0 -0 -0 -0 -0 -0 -0 -0 -4 -0 -0 -1 -0 -0 -0 -0 -0
-254 -262 -244 -215 -253 -152 -143 -73 -110 -194 -229 -142 -122 -149 -66 -152 -128 -127 -34 -0 -0 -0 -0 -0 -0 -0 -0 -0 -0 -0 -0 -0 -0 -0 -0 -0 -0 -0 -0 -0 -0 -0 -0
-230 -203 -209 -159 -109 -115 -119 -117 -167 -174 -229 -195 -108 -138 -184 -113 -79 -36 -0 -0 -0 -0 -0 -0 -0 -0 -0 -0 -0 -0 -0 -0 -0 -0 -0 -0 -0 -0 -0 -0 -0 -0 -0
-141 -153 -185 -134 -121 -79 -98 -110 -111 -175 -248 -156 -114 -108 -172 -154 -125 -0 -0 -0 -0 -0 -0 -0 -0 -0 -0 -0 -0 -0 -0 -0 -0 -0 -0 -0 -0 -0 -0 -0 -0 -0 -0
-126 -97 -154 -188 -139 -73 -81 -212 -198 -220 -209 -189 -206 -177 -233 -0 -0 -0 -0 -0 -0 -0 -0 -0 -0 -0 -0 -0 -0 -0 -0 -0 -0 -0 -0 -0 -0 -0 -0 -0 -0 -0 -0
-107 -100 -192 -147 -140 -108 -164 -208 -246 -232 -146 -239 -151 -0 -235 -0 -0 -0 -0 -0 -0 -0 -0 -0 -0 -0 -0 -0 -0 -0 -0 -0 -0 -0 -0 -0 -0 -0 -0 -0 -0 -0 -0
-94 -106 -170 -191 -220 -311 -228 -258 -259 -57 -0 -0 -0 -0 -5 -0 -0 -0 -0 -0 -0 -0 -0 -0 -0 -0 -0 -0 -0 -0 -0 -0 -0 -0 -0 -0 -0 -0 -0 -0 -0 -0 -0
-68 -98 -249 -275 -273 -289 -0 -17 -95 -0 -0 -0 -0 -0 -0 -0 -0 -0 -0 -0 -0 -0 -0 -0 -0 -0 -0 -0 -0 -0 -0 -0 -0 -0 -0 -0 -0 -0 -0 -0 -0 -0 -0
-73 -97 -127 -392 -0 -0 -0 -0 -0 -0 -0 -0 -0 -0 -0 -0 -0 -0 -0 -0 -0 -0 -0 -0 -0 -0 -0 -0 -0 -0 -0 -0 -0 -0 -0 -0 -0 -0 -0 -0 -0 -0 -0
Wind_Speed
12 14 12 9 4 4 7 7 7 6 3 4 8 7 8 9 8 10 10 14 10 10 7 14 7 nan nan 11 6 6 6 5 4 10 11 11 13 11 8 1 7 nan 11
16 13 9 9 7 8 10 10 9 8 4 3 6 8 10 7 13 13 13 11 14 7 10 5 9 nan nan nan nan nan 5 4 5 7 10 11 12 13 15 12 11 10 13
13 11 8 8 8 8 8 8 10 11 8 5 7 4 8 10 12 9 17 15 15 10 14 7 10 10 10 8 9 9 8 nan 8 7 7 nan nan nan 11 9 10 12 13
12 9 7 7 8 8 9 10 9 9 8 6 8 8 6 8 12 13 11 15 9 8 9 8 8 12 12 nan nan nan nan nan nan nan nan nan nan nan nan 9 10 12 14
9 9 8 8 6 7 6 6 5 3 4 6 6 5 8 7 8 11 10 10 8 7 nan nan nan nan nan nan nan nan nan nan nan nan nan nan nan nan nan nan 12 13 14
6 7 8 7 6 5 5 4 4 4 5 5 6 8 8 9 7 10 9 8 6 4 nan nan nan nan nan nan nan nan nan nan nan nan nan nan nan nan nan 13 16 18 19
5 4 6 7 6 7 6 5 5 4 4 5 6 8 9 11 10 9 9 8 7 4 3 nan nan nan nan nan nan nan nan nan nan nan nan nan nan 17 nan nan nan nan nan
9 5 5 8 8 6 6 6 5 5 6 6 8 9 8 8 9 10 10 10 8 5 4 nan nan nan nan nan nan nan nan nan nan nan nan nan 14 19 23 21 20 20 20
nan 7 4 5 6 6 6 7 8 7 8 9 10 10 10 10 10 10 9 nan nan nan nan nan nan nan nan nan nan nan nan nan nan nan nan nan 17 20 23 25 25 24 23
nan 9 6 4 nan nan nan 9 10 12 13 14 14 14 14 14 14 13 13 nan nan nan nan nan nan nan nan nan nan nan nan nan nan nan nan nan 19 23 24 26 26 25 23
9 10 nan 8 6 nan nan 9 nan 14 nan nan nan nan 16 nan 15 16 nan nan nan nan nan nan nan nan nan nan nan nan nan nan nan nan nan nan 22 25 27 28 28 26 23
14 12 10 9 9 nan nan nan nan nan nan nan nan nan nan 15 nan 18 nan nan nan nan nan nan nan nan nan nan nan nan nan nan nan nan nan nan 25 26 28 29 29 27 27
18 14 13 13 12 10 nan nan nan nan 9 10 10 nan nan nan nan 15 nan nan nan nan nan nan nan nan nan nan nan nan nan nan nan nan nan nan 25 26 26 28 29 27 24
17 16 13 15 14 8 11 8 9 7 9 10 nan nan 8 5 10 nan nan nan nan nan nan nan nan 13 13 nan nan 10 14 17 nan nan 24 nan 22 28 34 37 35 34 32
19 17 16 16 16 14 8 12 14 8 16 nan nan nan 9 7 11 nan 17 nan nan nan 19 nan 18 18 17 18 20 19 20 19 21 25 26 43 42 40 44 44 46 48 48
22 20 20 18 18 18 18 19 16 17 17 nan nan nan nan nan nan nan nan nan nan nan nan nan nan nan nan nan nan nan nan 24 25 nan 30 nan nan nan 44 48 nan nan nan
29 30 27 21 22 20 20 21 17 20 nan nan nan nan nan nan nan nan nan nan nan nan nan nan nan nan nan nan nan nan nan nan nan nan nan nan nan nan nan nan nan nan nan
34 36 31 29 30 26 21 22 19 21 nan nan nan nan nan nan nan nan nan nan nan nan nan nan nan nan nan nan nan nan nan nan nan nan nan nan nan nan nan nan nan nan nan
40 38 37 36 36 33 25 24 23 nan nan nan nan nan nan nan nan nan nan nan nan nan nan nan nan nan nan nan nan nan nan nan nan nan nan nan nan nan nan nan nan nan nan
43 45 41 37 38 37 32 29 26 27 nan nan nan nan nan nan nan nan nan nan nan nan nan nan nan nan nan nan nan nan nan nan nan nan nan nan nan nan nan nan nan nan nan
44 47 43 42 38 36 33 34 32 nan nan nan 28 nan nan nan nan nan nan nan nan nan nan nan nan nan nan nan nan nan nan nan nan nan nan nan nan nan nan nan nan nan nan
46 46 43 42 41 37 36 nan nan nan nan nan nan nan nan nan nan nan nan nan nan nan nan nan nan nan nan nan nan nan nan nan nan nan nan nan nan nan nan nan nan nan nan
49 46 44 41 40 40 39 40 nan nan nan nan nan nan nan nan nan nan nan nan nan nan nan nan nan nan nan nan nan nan nan nan nan nan nan nan nan nan nan nan nan nan nan
48 48 47 44 43 nan nan nan nan nan nan nan nan nan nan nan nan nan nan nan nan nan nan nan nan nan nan nan nan nan nan nan nan nan nan nan nan nan nan nan nan nan nan
51 48 47 47 nan nan nan nan nan nan nan nan nan nan nan nan nan nan nan nan nan nan nan nan nan nan nan nan nan nan nan nan nan nan nan nan nan nan nan nan nan nan nan
51 50 nan nan nan nan nan nan nan nan nan nan nan nan nan nan nan nan nan nan nan nan nan nan nan nan nan nan nan nan nan nan nan nan nan nan nan nan nan nan nan nan nan
Wind_Direction
33 30 1 349 358 18 352 351 333 344 356 49 47 49 74 180 162 189 161 159 150 172 185 193 196 nan nan 215 205 204 216 228 274 257 254 251 249 230 202 31 283 nan 280
8 29 3 354 355 11 13 9 350 358 12 52 69 60 68 100 181 162 173 169 148 179 175 208 212 nan nan nan nan nan 203 202 218 267 277 273 256 222 214 265 273 284 283
359 27 13 3 4 5 5 5 6 2 15 29 79 78 75 72 126 142 191 167 132 177 219 214 216 221 194 169 168 172 187 nan 206 214 253 nan nan nan 251 268 291 295 302
353 21 21 351 354 355 4 6 7 349 352 36 66 89 94 107 110 113 113 140 122 134 131 153 149 196 178 nan nan nan nan nan nan nan nan nan nan nan nan 286 305 318 327
343 4 12 334 337 342 358 16 36 33 23 37 63 99 99 103 115 118 125 129 123 107 nan nan nan nan nan nan nan nan nan nan nan nan nan nan nan nan nan nan 319 320 319
333 356 346 329 329 329 330 351 16 75 85 88 80 79 95 107 108 121 150 143 128 102 nan nan nan nan nan nan nan nan nan nan nan nan nan nan nan nan nan 323 319 327 331
337 353 333 311 307 312 322 335 357 23 69 78 78 82 79 86 95 111 124 121 113 101 70 nan nan nan nan nan nan nan nan nan nan nan nan nan nan 322 nan nan nan nan nan
333 355 338 307 305 312 325 331 339 352 13 40 55 57 58 64 78 91 97 103 106 98 72 nan nan nan nan nan nan nan nan nan nan nan nan nan 316 324 322 323 325 328 329
nan 341 19 345 330 331 344 353 355 6 16 24 31 39 45 43 42 39 44 nan nan nan nan nan nan nan nan nan nan nan nan nan nan nan nan nan 320 320 320 322 324 326 328
nan 312 330 342 nan nan nan 8 13 13 18 25 29 32 33 36 34 29 25 nan nan nan nan nan nan nan nan nan nan nan nan nan nan nan nan nan 322 318 319 319 321 326 329
304 313 nan 334 341 nan nan 24 nan 18 nan nan nan nan 34 nan 39 35 nan nan nan nan nan nan nan nan nan nan nan nan nan nan nan nan nan nan 323 322 323 322 322 323 323
301 307 315 313 322 nan nan nan nan nan nan nan nan nan nan 28 nan 25 nan nan nan nan nan nan nan nan nan nan nan nan nan nan nan nan nan nan 322 326 324 320 321 323 324
298 293 300 305 314 320 nan nan nan nan 1 7 15 nan nan nan nan 357 nan nan nan nan nan nan nan nan nan nan nan nan nan nan nan nan nan nan 330 326 330 326 324 321 313
292 288 287 295 283 307 285 325 326 330 334 318 nan nan 296 323 324 nan nan nan nan nan nan nan nan 335 333 nan nan 303 317 313 nan nan 310 nan 300 273 280 276 276 280 281
304 294 290 274 277 276 295 288 287 291 283 nan nan nan 268 290 302 nan 293 nan nan nan 303 nan 295 292 298 290 290 295 289 296 299 296 295 277 279 279 275 274 273 271 273
301 302 280 267 269 263 263 268 277 282 279 nan nan nan nan nan nan nan nan nan nan nan nan nan nan nan nan nan nan nan nan 272 269 nan 279 nan nan nan 274 272 nan nan nan
267 267 264 262 261 259 264 267 267 273 nan nan nan nan nan nan nan nan nan nan nan nan nan nan nan nan nan nan nan nan nan nan nan nan nan nan nan nan nan nan nan nan nan
266 261 251 255 261 258 259 260 264 267 nan nan nan nan nan nan nan nan nan nan nan nan nan nan nan nan nan nan nan nan nan nan nan nan nan nan nan nan nan nan nan nan nan
261 265 257 254 260 263 265 268 265 nan nan nan nan nan nan nan nan nan nan nan nan nan nan nan nan nan nan nan nan nan nan nan nan nan nan nan nan nan nan nan nan nan nan
259 259 259 258 262 263 265 269 271 272 nan nan nan nan nan nan nan nan nan nan nan nan nan nan nan nan nan nan nan nan nan nan nan nan nan nan nan nan nan nan nan nan nan
258 257 258 263 264 267 267 270 270 nan nan nan 276 nan nan nan nan nan nan nan nan nan nan nan nan nan nan nan nan nan nan nan nan nan nan nan nan nan nan nan nan nan nan
259 263 261 265 267 267 270 nan nan nan nan nan nan nan nan nan nan nan nan nan nan nan nan nan nan nan nan nan nan nan nan nan nan nan nan nan nan nan nan nan nan nan nan
260 262 267 268 271 269 268 269 nan nan nan nan nan nan nan nan nan nan nan nan nan nan nan nan nan nan nan nan nan nan nan nan nan nan nan nan nan nan nan nan nan nan nan
259 260 266 270 267 nan nan nan nan nan nan nan nan nan nan nan nan nan nan nan nan nan nan nan nan nan nan nan nan nan nan nan nan nan nan nan nan nan nan nan nan nan nan
265 265 265 266 nan nan nan nan nan nan nan nan nan nan nan nan nan nan nan nan nan nan nan nan nan nan nan nan nan nan nan nan nan nan nan nan nan nan nan nan nan nan nan
264 267 nan nan nan nan nan nan nan nan nan nan nan nan nan nan nan nan nan nan nan nan nan nan nan nan nan nan nan nan nan nan nan nan nan nan nan nan nan nan nan nan nan